Current Version              Previous Version:    01  02  03  04  05  06  07  08  09  10  11  12  13  14  15  16  17  18  19  20  21  22  23  24  25  26  27  28  29  30  
   31  32  33  34  35  36  37  38  39  40  41  42  43  44  45  46  47  48  49  50  51  52  53  54  55  56  57  58  59  60  

[Printable]
353
ASUS44 KFWD 190715
RWRTX
NORTH TEXAS HOURLY WEATHER ROUNDUP
NATIONAL WEATHER SERVICE FORT WORTH TX
100 AM CST FRI DEC 19 2014

NOTE: "FAIR" INDICATES FEW OR NO CLOUDS BELOW 12,000 FEET WITH NO
SIGNIFICANT WEATHER AND/OR OBSTRUCTIONS TO VISIBILITY.

TXZ118-119-190800-
DALLAS/FORT WORTH METROPLEX

CITY           SKY/WX    TMP DP  RH WIND       PRES   REMARKS
DFW AIRPORT    CLOUDY    46  43  89 N6        30.15F FOG
DALLAS LOVE    CLOUDY    47  43  86 NE9       30.15F
FTW MEACHAM    CLOUDY    47  44  90 N8        30.15S FOG
DAL-EXECUTIVE  CLOUDY    48  43  82 NE8       30.14F
FTW-ALLIANCE   CLOUDY    45  43  93 NE7       30.16S
FTW-SPINKS     CLOUDY    47  44  90 N7        30.17S FOG
ARLINGTON      CLOUDY    48  42  80 N9        30.15S
GRAND PRAIRIE  CLOUDY    47  46  97 N7        30.17S
ADDISON        CLOUDY    46  46 100 N7        30.16F
MESQUITE       CLOUDY    46  44  94 N7        30.16S
LANCASTER      CLOUDY    46  43  89 N6        30.16F
$$

TXZ091>094-102>105-117-120-121-131>134-190800-
NORTH CENTRAL TEXAS

CITY           SKY/WX    TMP DP  RH WIND       PRES   REMARKS
SHRMAN/DENISON CLOUDY    44  44 100 NE7       30.16F FOG
GAINESVILLE    CLOUDY    43  42  96 NE5       30.20R FOG
BOWIE          CLOUDY    43  42  97 NE3       30.17S
BRIDGEPORT     CLOUDY    45  45 100 NE6       30.18F
DECATUR        CLOUDY    43  43  99 E9        30.15F FOG     WCI  38
DENTON         CLOUDY    45  42  89 NE7       30.17S
MCKINNEY       CLOUDY    45  43  93 NE7       30.17S
GREENVILLE     CLOUDY    45  43  93 N5        30.15F FOG
ROCKWALL       CLOUDY    45  44  97 NE8       30.14S
TERRELL        CLOUDY    48  44  86 NE7       30.15F FOG
WAXAHACHIE     CLOUDY    46  46 100 N7        30.16S FOG
CLEBURNE       CLOUDY    46  46 100 N5        30.15S
GRANBURY       CLOUDY    47  44  88 N3        30.15F
$$

TXZ083>090-098>101-113>116-127>130-139>142-154-155-190800-
WESTERN NORTH TEXAS

CITY           SKY/WX    TMP DP  RH WIND       PRES   REMARKS
WICHITA FALLS  CLOUDY    43  41  93 NE8       30.18F WCI  38
WF-KICKAPOO    CLOUDY    44  44 100 N7        30.20F FOG     WCI  40
VERNON         CLOUDY    44  38  81 NE5       30.21S
ABILENE        CLOUDY    44  40  85 N6        30.14F
ABILENE-DYESS  CLOUDY    43  38  80 NE7       30.13S WCI  39
BRECKENRIDGE   CLOUDY    47  45  93 NE5       30.15F
GRAHAM         CLOUDY    44  44  99 NE5       30.14F FOG
MINERAL WELLS  CLOUDY    46  43  89 NE6       30.13F
STEPHENVILLE   CLOUDY    46  42  86 NE5       30.15F
COMANCHE       CLOUDY    46  44  92 NE7       30.13F
BROWNWOOD      CLOUDY    48  43  81 NE6       30.12F
COLEMAN        CLOUDY    48  45  88 NE14      30.10F
$$

TXZ143>147-156>162-174-175-190800-
CENTRAL TEXAS

CITY           SKY/WX    TMP DP  RH WIND       PRES   REMARKS
WACO           CLOUDY    48  46  93 N10       30.12F
WACO-MCGREGOR  CLOUDY    48  41  76 NE10      30.12F
HILLSBORO      CLOUDY    48  45  89 NE8       30.15R
CORSICANA      CLOUDY    48  45  89 NE6       30.15S FOG
MEXIA          CLOUDY    48  47  97 N8        30.12F FOG
HEARNE         TSTM      51  50  96 N6        30.11R
CAMERON        TSTM      50  49  97 NE12G18   30.09F
TEMPLE         CLOUDY    48  43  81 N8        30.11S
KILLEEN        LGT RAIN  46  46 100 N10       30.10F
KILLEEN-SKYLRK CLOUDY    48  39  71 N9        30.08F
FORT HOOD      CLOUDY    47  45  91 N10       30.11F
GATESVILLE     MOCLDY    46  46 100 NE5       30.15R
HAMILTON       CLOUDY    47  45  90 NE8       30.13R
LAMPASAS       CLOUDY    48  46  93 NE8       30.12R
$$

TXZ095>097-106>112-122>126-135>138-148>153-164>167-190800-
EAST TEXAS

CITY           SKY/WX    TMP DP  RH WIND       PRES   REMARKS
PARIS          CLOUDY    45  41  87 NE8       30.17F
SULPHUR SPRNGS CLOUDY    46  45  97 NE5       30.17F FOG
MOUNT PLEASANT CLOUDY    46  45  95 NE3       30.18S
MINEOLA        CLOUDY    46  46 100 CALM      30.17S FOG
TYLER          CLOUDY    48  46  93 NE7       30.14S FOG
LONGVIEW       CLOUDY    49  46  90 E5        30.13F FOG
MARSHALL       CLOUDY    51  48  90 CALM      30.15F
ATHENS         CLOUDY    46  45  93 NE6       30.13F
PALESTINE      CLOUDY    50  48  95 NE9       30.12F FOG
JACKSONVILLE   CLOUDY    49  49  98 NE9       30.12F FOG
HENDERSON      CLOUDY    48  48 100 E6        30.14F FOG
NACOGDOCHES    CLOUDY    50  46  87 CALM      30.11F
LUFKIN         LGT RAIN  55  49  80 E7        30.09F
$$

SUPPLEMENTAL OBSERVATIONS (CENTRAL)

CITY           SKY/WX    TMP DP  RH WIND       PRES   REMARKS
LAKE TEXOMA      N/A     45  43  93 NE6         N/A
CADDO GRASSLND   N/A     45  41  87 N3          N/A
PAT MAYSE LAKE   N/A     45  43  93 NW2         N/A
GREENVILLE       N/A     45  41  87 NE8         N/A
CEDAR HILL       N/A     46  43  87 NE5         N/A
ATHENS           N/A     48  45  87 NE3         N/A
LAKE LIMESTONE   N/A     50  46  87 N13         N/A
MCGREGOR         N/A     46  43  87 N7          N/A
$$

SUPPLEMENTAL OBSERVATIONS (WEST)

CITY           SKY/WX    TMP DP  RH WIND       PRES   REMARKS
MILLERS CREEK    N/A     45  39  81 N5          N/A
LBJ GRASSLAND    N/A     45  39  81 NE6         N/A
GRANBURY         N/A     46  43  87 N5          N/A
COMANCHE         N/A     46  45  93 NE8         N/A
HAMBY            N/A     43  39  87 N5G13       N/A
IVIE RESERVOIR   N/A     50  45  81 E8          N/A
COLORADO BEND    N/A     46  43  87 E6          N/A
$$

SUPPLEMENTAL OBSERVATIONS (EAST)

CITY           SKY/WX    TMP DP  RH WIND       PRES   REMARKS
CLARKSVILLE      N/A     45  43  93 NE5         N/A
CADDO LAKE       N/A     48  45  87 NE3         N/A
GILMER           N/A     46  43  87 N5          N/A
HENDERSON        N/A     48  45  87 NE6         N/A
LUFKIN           N/A     52  48  87 MISG        N/A
N SABINE NF      N/A     52  46  82 MISG        N/A
S SABINE NF      N/A     52  48  87 NE5         N/A
$$

SUPPLEMENTAL OBSERVATIONS ARE A COLLECTION OF AUTOMATED INSTRUMENTS
THAT ARE MAINTAINED BY A VARIETY OF FEDERAL AND STATE AGENCIES.
CERTAIN ELEMENTS...SUCH AS HUMIDITY VALUES AND SUSTAINED WIND
SPEEDS...MAY BE APPROXIMATED.